[[{"header":{"parameterUnit":"m.s-1","parameterCategory":1,"la1":30.2991,"la2":30.254,"lo1":-89.0895,"lo2":-89.0444,"dy":0.0017,"dx":0.0017,"nx":28,"ny":28,"refTime":"2024-04-26T21:00:00:Z","depth":0,"parameterNumber":2,"parameterNumberName":"U-component_of_WINDS"},"data":[0,0,0,0,0,0,0,0,0,0,0,0,0,0,0,0,0,0,0,0,0,0,0,0,0,0,0,0,0,0,0,0,0,0,0,0,0,0,0,0,0,0,0,0,0,0,0,0,0,0,0,0,0,0,0,0,0,0,-7.2033,-7.2034,0,-7.2178,-7.218,-7.2182,-7.2189,-7.2188,-7.2186,-7.2184,-7.2329,-7.2334,-7.2339,0,0,0,0,0,0,0,0,0,0,0,0,0,-7.1757,-7.1762,-7.2032,-7.2034,-7.2036,-7.2178,-7.218,-7.2182,-7.219,-7.2188,-7.2186,-7.2184,-7.2327,-7.2333,-7.234,0,0,0,0,0,0,0,0,0,0,0,0,0,-7.1887,-7.1763,-7.2032,-7.2057,-7.2061,-7.2178,-7.218,-7.2183,-7.219,-7.2188,-7.2185,-7.2183,-7.2325,-7.2333,-7.2341,-7.2441,0,0,-7.2365,-7.2369,0,0,0,0,0,0,0,0,-7.1879,-7.1897,-7.2052,-7.2056,-7.206,-7.2163,-7.2136,-7.2269,-7.2191,-7.2141,-7.2184,-7.2182,-7.2275,-7.2287,-7.232,-7.2448,-7.2454,-7.2366,-7.2371,-7.2374,-7.2377,0,0,0,0,0,0,0,-7.187,-7.1891,-7.209,-7.2054,-7.2059,-7.206,-7.2076,-7.2161,-7.222,-7.2145,-7.2146,-7.2163,-7.2277,-7.2312,-7.2323,-7.2456,-7.2366,-7.2373,-7.2378,-7.2381,-7.2673,-7.2676,0,0,0,0,0,0,-7.1857,-7.1883,-7.2085,-7.2094,-7.1962,-7.2067,-7.2084,-7.2132,-7.2219,-7.223,-7.2165,-7.2163,-7.23,-7.2314,-7.2328,-7.2451,-7.2374,-7.2382,-7.2387,-7.267,-7.2674,-7.2677,0,0,0,0,0,0,-7.1851,-7.1875,-7.2079,-7.1989,-7.2015,-7.2074,-7.2128,-7.2137,-7.2172,-7.2235,-7.2245,-7.2191,-7.2298,-7.2317,-7.2413,-7.2456,-7.2386,-7.2393,-7.2667,-7.2671,-7.2675,-7.2696,0,0,0,0,0,0,-7.1843,-7.1873,-7.1912,-7.199,-7.202,-7.2163,-7.2131,-7.2141,-7.2186,-7.2185,-7.2261,-7.2271,-7.2298,-7.2401,-7.2421,-7.2465,-7.2399,-7.2663,-7.2669,-7.2674,-7.2691,-7.27,-7.2708,0,0,0,0,0,-7.1833,-7.1911,-7.1914,-7.1938,-7.2071,-7.2165,-7.2182,-7.2212,-7.219,-7.2229,-7.227,-7.2269,-7.2449,-7.2411,-7.2434,-7.2481,-7.266,-7.2667,-7.2673,-7.2688,-7.2699,-7.2708,0,0,0,0,0,0,-7.1834,-7.1922,-7.1926,-7.2031,-7.2091,-7.2166,-7.2216,-7.2223,-7.2288,-7.2284,-7.2318,-7.2335,-7.243,-7.2466,-7.2422,-7.2583,-7.2552,-7.2563,-7.2555,-7.2566,-7.2574,-7.2561,-7.2406,0,0,0,0,0,-7.1847,-7.1918,-7.199,-7.2076,-7.2106,-7.2157,-7.2199,-7.2217,-7.228,-7.2304,-7.2352,-7.2411,-7.2481,-7.2526,-7.2594,-7.2698,-7.2714,-7.2742,-7.275,-7.2757,-7.2765,-7.2822,-7.2835,-7.2698,-7.2698,-7.2698,0,0,-7.1873,-7.193,-7.1972,-7.2078,-7.2126,-7.2197,-7.2177,-7.2253,-7.2306,-7.2315,-7.2408,-7.2446,-7.2515,-7.2615,-7.2662,-7.2648,-7.2807,-7.2765,-7.277,-7.2774,-7.283,-7.2843,-7.2854,-7.2702,-7.2702,-7.2701,0,0,-7.1957,-7.2008,-7.2085,-7.2135,-7.2209,-7.2243,-7.2261,-7.2337,-7.2362,-7.2458,-7.2466,-7.2529,-7.2649,-7.2697,-7.2737,-7.2843,-7.2844,-7.2864,-7.2905,-7.2961,-7.2971,-7.2981,-7.3016,-7.3029,-7.2873,-7.2873,-7.2873,0,-7.1979,-7.2088,-7.2123,-7.22,-7.2245,-7.2261,-7.2338,-7.2384,-7.2476,-7.2506,-7.2491,-7.2642,-7.269,-7.2801,-7.2827,-7.286,-7.2881,-7.2854,-7.2967,-7.2977,-7.2987,-7.3021,-7.3034,-7.2875,-7.2875,-7.2875,-7.2874,0,-7.2111,-7.2187,-7.224,-7.2331,-7.2383,-7.2459,-7.2505,-7.2554,-7.2569,-7.2604,-7.27,-7.2758,-7.2838,-7.2867,-7.2881,-7.2981,-7.297,-7.2961,-7.2929,-7.3001,-7.3034,-7.3047,-7.2878,-7.2877,-7.2876,-7.2876,0,0,-7.2195,-7.2307,-7.2326,-7.2367,-7.2452,-7.251,-7.2588,-7.2668,-7.2708,-7.2772,-7.2836,-7.2939,-7.2932,-7.2978,-7.2998,-7.3048,-7.3125,-7.3032,-7.3034,-7.3045,-7.3236,-7.324,-7.3255,-7.3128,-7.3131,-7.3133,-7.323,0,-7.2286,-7.2425,-7.246,-7.2578,-7.2648,-7.2665,-7.2732,-7.2791,-7.2827,-7.289,-7.2929,-7.3,-7.2986,-7.3014,-7.3064,-7.3105,-7.3163,-7.3099,-7.3186,-7.3189,-7.3165,-7.3272,-7.3277,-7.3365,-7.3243,-7.3245,-7.3247,0,-7.241,-7.2478,-7.2604,-7.2681,-7.2711,-7.2771,-7.2847,-7.2909,-7.2976,-7.2998,-7.3051,-7.3068,-7.3148,-7.3117,-7.3227,-7.3182,-7.3221,-7.3247,-7.3251,-7.3257,-7.3219,-7.3278,-7.3394,-7.3406,-7.3268,-7.3266,-7.3265,0,-7.2455,-7.258,-7.2671,-7.2706,-7.2798,-7.284,-7.288,-7.2945,-7.2991,-7.3058,-7.3088,-7.3163,-7.3203,-7.3261,-7.3297,-7.3271,-7.3404,-7.3375,-7.3423,-7.3422,-7.3446,-7.3443,-7.3566,-7.3477,-7.3477,-7.3476,-7.3476,0,-7.2551,-7.2626,-7.2692,-7.2748,-7.2833,-7.2873,-7.2955,-7.2996,-7.3054,-7.3117,-7.3137,-7.3195,-7.3241,-7.3306,-7.3335,-7.3421,-7.344,-7.3458,-7.3464,-7.3455,-7.3452,-7.3477,-7.3471,-7.348,-7.3479,-7.3478,-7.3478,0,-7.2614,-7.2662,-7.2762,-7.2842,-7.2864,-7.2923,-7.2991,-7.3045,-7.3083,-7.3163,-7.3183,-7.3242,-7.3319,-7.3362,-7.3459,-7.3478,-7.3573,-7.3578,-7.3551,-7.3553,-7.3596,-7.3591,-7.3737,-7.3757,-7.3657,-7.3658,-7.3659,0,-7.267,-7.2729,-7.2817,-7.2861,-7.2902,-7.2974,-7.3022,-7.3064,-7.3113,-7.3196,-7.3239,-7.3318,-7.3383,-7.3506,-7.3556,-7.363,-7.3634,-7.3681,-7.3645,-7.3633,-7.3632,-7.3626,-7.3632,-7.3685,-7.3686,-7.3687,-7.3687,0,-7.2764,-7.2785,-7.2855,-7.2933,-7.299,-7.3053,-7.3115,-7.315,-7.3203,-7.3257,-7.3337,-7.3388,-7.3488,-7.3565,-7.3644,-7.3684,-7.3694,-7.3699,-7.3713,-7.3702,-7.3683,-7.3691,-7.3564,-7.3694,-7.3694,-7.3693,-7.3693,-7.3692,-7.2824,-7.2877,-7.2947,-7.3023,-7.3076,-7.3134,-7.3189,-7.3235,-7.3303,-7.3388,-7.341,-7.3494,-7.356,-7.3667,-7.371,-7.3775,-7.3766,-7.3788,-7.3793,-7.3796,-7.3796,-7.3676,-7.379,-7.379,-7.379,-7.379,-7.379,0,-7.2916,-7.2963,-7.3034,-7.3121,-7.3181,-7.319,-7.326,-7.3308,-7.3383,-7.3445,-7.351,-7.3602,-7.3678,-7.3735,-7.3813,-7.3854,-7.386,-7.3872,-7.3868,-7.3877,-7.3801,-7.378,-7.3866,-7.3866,-7.3866,-7.3866,-7.3866,-7.3866,-7.2971,-7.3061,-7.3091,-7.3206,-7.3253,-7.3336,-7.3375,-7.3429,-7.3479,-7.3581,-7.3645,-7.3683,-7.3744,-7.3826,-7.3896,-7.3911,-7.3937,-7.3948,-7.3963,-7.389,-7.3882,-7.3874,-7.3854,-7.3954,-7.3954,-7.4033,-7.4034,-7.4034]},{"header":{"parameterUnit":"m.s-1","parameterCategory":1,"la1":30.2991,"la2":30.254,"lo1":-89.0895,"lo2":-89.0444,"dy":0.0017,"dx":0.0017,"nx":28,"ny":28,"refTime":"2024-04-26T21:00:00:Z","depth":0,"parameterNumber":3,"parameterNumberName":"V-component_of_WINDS"},"data":[0,0,0,0,0,0,0,0,0,0,0,0,0,0,0,0,0,0,0,0,0,0,0,0,0,0,0,0,0,0,0,0,0,0,0,0,0,0,0,0,0,0,0,0,0,0,0,0,0,0,0,0,0,0,0,0,0,0,4.7975,4.7976,0,4.8066,4.8067,4.8068,4.8099,4.8099,4.8099,4.8098,4.8186,4.8189,4.8191,0,0,0,0,0,0,0,0,0,0,0,0,0,4.7827,4.7829,4.7975,4.7976,4.7977,4.8065,4.8067,4.8068,4.8099,4.8099,4.8099,4.8098,4.8185,4.8188,4.8191,0,0,0,0,0,0,0,0,0,0,0,0,0,4.7901,4.783,4.7975,4.8004,4.8007,4.8065,4.8067,4.8068,4.81,4.8099,4.8099,4.8098,4.8184,4.8188,4.8192,4.8226,0,0,4.8204,4.8206,0,0,0,0,0,0,0,0,4.7897,4.7907,4.7998,4.8002,4.8006,4.8071,4.8047,4.8121,4.81,4.8064,4.8098,4.8098,4.8148,4.8155,4.8173,4.823,4.8234,4.8204,4.8207,4.8208,4.8209,0,0,0,0,0,0,0,4.7892,4.7903,4.8011,4.8,4.8004,4.8011,4.8022,4.8061,4.8107,4.8067,4.807,4.8081,4.815,4.8169,4.8175,4.8235,4.8204,4.8208,4.821,4.8212,4.8329,4.833,0,0,0,0,0,0,4.7882,4.7899,4.8008,4.8013,4.7949,4.8015,4.8026,4.805,4.8107,4.8115,4.8081,4.8082,4.8162,4.817,4.8178,4.8224,4.8208,4.8212,4.8214,4.8328,4.8329,4.833,0,0,0,0,0,0,4.7879,4.7892,4.8004,4.7957,4.7972,4.8018,4.8045,4.8052,4.8072,4.8117,4.8126,4.8092,4.8162,4.8172,4.8215,4.8228,4.8214,4.8217,4.8327,4.8328,4.8329,4.8315,0,0,0,0,0,0,4.7875,4.789,4.7904,4.7957,4.7974,4.804,4.8046,4.8055,4.8079,4.8081,4.813,4.8138,4.8163,4.8209,4.8219,4.8233,4.8221,4.8326,4.8328,4.8329,4.8314,4.8315,4.8316,0,0,0,0,0,4.7869,4.7895,4.7905,4.7918,4.7992,4.8041,4.8051,4.808,4.808,4.8094,4.8124,4.8136,4.8225,4.8213,4.8225,4.824,4.8326,4.8327,4.8329,4.8314,4.8315,4.8316,0,0,0,0,0,0,4.7839,4.7902,4.7914,4.7957,4.7994,4.8046,4.8065,4.808,4.8116,4.8116,4.815,4.8161,4.8201,4.8225,4.8211,4.8278,4.8276,4.828,4.8261,4.8262,4.8263,4.8256,4.8224,0,0,0,0,0,4.7838,4.7873,4.7926,4.7959,4.7977,4.8018,4.804,4.806,4.8099,4.8114,4.8147,4.8182,4.8219,4.8242,4.8277,4.8318,4.833,4.8335,4.8335,4.8336,4.8339,4.8365,4.8368,4.8335,4.8335,4.8335,0,0,4.7835,4.7874,4.7893,4.7954,4.7985,4.802,4.803,4.8066,4.8093,4.8118,4.8162,4.8188,4.823,4.8273,4.8293,4.8293,4.8351,4.8338,4.8338,4.8341,4.8367,4.837,4.8373,4.8336,4.8336,4.8336,0,0,4.7848,4.788,4.7913,4.7945,4.7993,4.802,4.8028,4.808,4.8098,4.8143,4.8164,4.8196,4.8257,4.8287,4.831,4.834,4.8353,4.835,4.8354,4.8379,4.8382,4.8385,4.8397,4.84,4.8353,4.8353,4.8353,0,4.7837,4.7893,4.7927,4.7964,4.7991,4.8019,4.8052,4.8081,4.8137,4.8154,4.8154,4.8235,4.8265,4.8316,4.8324,4.8341,4.8352,4.8344,4.8379,4.8382,4.8385,4.8397,4.8401,4.8352,4.8352,4.8353,4.8353,0,4.7879,4.7918,4.7938,4.7995,4.8024,4.8059,4.8098,4.8123,4.8142,4.817,4.8216,4.8254,4.8299,4.8313,4.833,4.8368,4.8367,4.8373,4.8372,4.8387,4.8399,4.8403,4.8352,4.8352,4.8352,4.8352,0,0,4.7873,4.7952,4.7959,4.7987,4.8043,4.8073,4.811,4.8157,4.8179,4.8217,4.8249,4.8302,4.8309,4.8336,4.8357,4.8379,4.8403,4.8383,4.8384,4.8386,4.8449,4.8445,4.845,4.8412,4.8413,4.8414,4.8446,0,4.7894,4.7963,4.7997,4.8051,4.8088,4.8117,4.8149,4.8187,4.8215,4.825,4.8279,4.8318,4.8323,4.834,4.8363,4.8395,4.8416,4.8393,4.8442,4.8443,4.8431,4.8456,4.8451,4.8479,4.8451,4.8452,4.8452,0,4.7928,4.797,4.8028,4.8084,4.8101,4.8129,4.8177,4.821,4.8255,4.8273,4.8305,4.8327,4.8367,4.8364,4.842,4.8404,4.8427,4.8446,4.8447,4.8453,4.8449,4.8463,4.8489,4.8494,4.8459,4.8459,4.8458,0,4.7919,4.799,4.8036,4.8058,4.8124,4.8144,4.8172,4.8216,4.8243,4.8284,4.8303,4.8347,4.8371,4.8405,4.8438,4.8433,4.8492,4.8491,4.8509,4.8508,4.852,4.8519,4.8551,4.8533,4.8533,4.8533,4.8533,0,4.794,4.7975,4.8033,4.8061,4.8102,4.814,4.8179,4.8209,4.8249,4.8283,4.831,4.8341,4.8383,4.8419,4.8445,4.8489,4.8499,4.8516,4.8522,4.8514,4.8512,4.8529,4.8528,4.8534,4.8534,4.8534,4.8533,0,4.7937,4.7977,4.8029,4.8089,4.8105,4.8132,4.8183,4.8211,4.8241,4.8284,4.8297,4.8344,4.8389,4.8426,4.8483,4.8501,4.8547,4.8554,4.8533,4.8536,4.8553,4.8551,4.8597,4.8606,4.8581,4.8582,4.8582,0,4.7947,4.7976,4.804,4.8066,4.8095,4.8135,4.8165,4.8205,4.8234,4.8289,4.8311,4.8358,4.8398,4.8468,4.8507,4.8552,4.8561,4.8575,4.8568,4.856,4.8563,4.8561,4.8565,4.8575,4.8575,4.8575,4.8575,0,4.7962,4.7982,4.8024,4.8075,4.811,4.815,4.8191,4.8211,4.8258,4.829,4.8338,4.8369,4.8431,4.8477,4.8528,4.8556,4.8573,4.8577,4.8584,4.8575,4.8563,4.8572,4.8535,4.8575,4.8575,4.8575,4.8575,4.8575,4.7967,4.7995,4.8046,4.8093,4.8129,4.8168,4.8199,4.8235,4.8276,4.8331,4.8351,4.8401,4.8447,4.8517,4.8546,4.8585,4.8586,4.8596,4.8598,4.86,4.86,4.8557,4.8594,4.8594,4.8594,4.8594,4.8594,0,4.7985,4.802,4.8063,4.8122,4.8159,4.8176,4.8224,4.8253,4.8297,4.834,4.8381,4.8437,4.8484,4.8528,4.8577,4.86,4.8609,4.8611,4.861,4.8617,4.8595,4.8585,4.8603,4.8603,4.8603,4.8603,4.8603,4.8603,4.7998,4.8047,4.8074,4.8142,4.8176,4.8227,4.8253,4.8289,4.8325,4.8387,4.8427,4.8457,4.8501,4.8554,4.8598,4.861,4.8627,4.8627,4.8641,4.8619,4.8618,4.8617,4.8607,4.863,4.863,4.866,4.8661,4.8661]}]]